TimePDT,TemperatureF,Dew PointF,Humidity,Sea Level PressureIn,VisibilityMPH,Wind Direction,Wind SpeedMPH,Gust SpeedMPH,PrecipitationIn,Events,Conditions,WindDirDegrees,DateUTC
12:45 AM,51.8,50.0,94,29.94,10.0,SSW,4.6,-,N/A,,Overcast,200,2013-07-11 07:45:00
12:53 AM,52.0,50.0,93,29.92,10.0,SSE,3.5,-,N/A,,Overcast,160,2013-07-11 07:53:00
1:53 AM,51.1,48.9,92,29.92,10.0,South,4.6,-,N/A,,Overcast,170,2013-07-11 08:53:00
2:53 AM,51.1,48.9,92,29.91,10.0,Calm,Calm,-,N/A,,Overcast,0,2013-07-11 09:53:00
3:53 AM,51.1,48.0,89,29.91,10.0,Calm,Calm,-,N/A,,Overcast,0,2013-07-11 10:53:00
4:53 AM,50.0,48.9,96,29.90,8.0,Calm,Calm,-,N/A,,Overcast,0,2013-07-11 11:53:00
5:53 AM,50.0,48.9,96,29.91,6.0,South,4.6,-,N/A,,Overcast,170,2013-07-11 12:53:00
6:34 AM,51.8,48.2,88,29.94,10.0,SSW,3.5,-,N/A,,Overcast,200,2013-07-11 13:34:00
6:53 AM,51.1,48.0,89,29.92,2.5,South,3.5,-,N/A,,Overcast,190,2013-07-11 13:53:00
7:00 AM,51.8,48.2,88,29.94,2.5,South,3.5,-,N/A,,Overcast,180,2013-07-11 14:00:00
7:03 AM,51.8,48.2,88,29.94,2.5,South,4.6,-,N/A,,Overcast,190,2013-07-11 14:03:00
7:53 AM,51.1,48.9,92,29.94,3.0,SSE,3.5,-,N/A,,Overcast,150,2013-07-11 14:53:00
8:53 AM,53.1,48.9,86,29.94,4.0,Calm,Calm,-,N/A,,Overcast,0,2013-07-11 15:53:00
9:53 AM,54.0,50.0,86,29.93,4.0,South,4.6,-,N/A,,Overcast,170,2013-07-11 16:53:00
10:51 AM,59.0,50.0,72,29.94,10.0,SSE,4.6,-,N/A,,Scattered Clouds,160,2013-07-11 17:51:00
10:53 AM,59.0,50.0,72,29.93,10.0,Variable,3.5,-,N/A,,Scattered Clouds,0,2013-07-11 17:53:00
11:53 AM,64.0,52.0,65,29.91,10.0,Variable,6.9,-,N/A,,Partly Cloudy,0,2013-07-11 18:53:00
12:53 PM,69.1,52.0,54,29.91,10.0,SE,6.9,-,N/A,,Clear,140,2013-07-11 19:53:00
1:53 PM,71.1,53.1,53,29.89,9.0,South,10.4,-,N/A,,Clear,190,2013-07-11 20:53:00
2:53 PM,75.0,53.1,46,29.87,10.0,SSE,6.9,-,N/A,,Clear,150,2013-07-11 21:53:00
3:53 PM,75.0,54.0,48,29.86,10.0,South,11.5,-,N/A,,Clear,170,2013-07-11 22:53:00
4:53 PM,72.0,53.1,51,29.85,10.0,South,10.4,-,N/A,,Clear,180,2013-07-11 23:53:00
5:53 PM,66.9,51.1,57,29.84,10.0,South,12.7,-,N/A,,Clear,180,2013-07-12 00:53:00
6:53 PM,64.0,51.1,63,29.84,10.0,South,11.5,-,N/A,,Clear,180,2013-07-12 01:53:00
7:53 PM,59.0,51.1,75,29.85,9.0,South,11.5,-,N/A,,Clear,180,2013-07-12 02:53:00
8:53 PM,55.0,51.1,86,29.86,9.0,South,9.2,-,N/A,,Clear,170,2013-07-12 03:53:00
9:00 PM,53.6,51.8,94,29.88,10.0,South,8.1,-,N/A,,Partly Cloudy,170,2013-07-12 04:00:00
9:13 PM,53.6,51.8,94,29.88,10.0,South,5.8,-,N/A,,Mostly Cloudy,170,2013-07-12 04:13:00
9:53 PM,55.0,51.1,86,29.88,9.0,SSE,6.9,-,N/A,,Overcast,150,2013-07-12 04:53:00
10:53 PM,55.0,51.1,86,29.89,8.0,South,8.1,-,N/A,,Overcast,170,2013-07-12 05:53:00
11:53 PM,54.0,50.0,86,29.90,8.0,SSE,5.8,-,N/A,,Overcast,150,2013-07-12 06:53:00